Weather in Kuli

Russia / Zabaykalsky Krai     51°08′03″N   109°02′38″E
temp.,
°C
wind,
m/s
gust,
m/s
humid.,
%
clouds,
%
prec.,
mm/h
press.,
hPa
HPBL,
m
2 march, tue
tue200:00−21sse119499 0.0 102320
03:00−22ese119696 0.0 102120
06:00−24se119638 0.0 101920
09:00−23sse119360 0.0 101820
12:00−14ssw248091 0.0 1014321
15:00−7wsw267572 0.0 1010595
18:00−6wsw157981 0.0 1009506
21:00−14w119067 0.0 101120
3 march, wed
wed300:00−11ssw1197100 0.3 101125
03:00−14sw1297100 0.4 101120
06:00−16ssw119798 0.0 101120
09:00−16sw119899 0.0 101220
12:00−7sw2487100 0.1 1009428
15:00−5wnw3584100 0.3 1009698
18:00−7nw4779100 0.3 10101171
21:00−15wnw129086 0.3 101520
4 march, thu
thu400:00−16wsw129497 0.0 101821
03:00−18w389394 0.0 1020180
06:00−20w359282 0.0 1024111
09:00−22w239373 0.0 102959
12:00−16w59700 0.0 10301061
15:00−14wnw510672 0.0 10311411
18:00−15wnw59698 0.0 10321189
21:00−22wnw38804 0.0 1037145
5 march, fri
fri500:00−25w12840 0.0 104020
03:00−27s11890 0.0 104119
06:00−28ese11970 0.0 104219
09:00−26ese1110026 0.0 104219
12:00−15sse128797 0.0 1038260
15:00−8s147785 0.0 1033545
18:00−7sse137916 0.0 1031587
21:00−14ne119240 0.0 103321
6 march, sat
sat600:00−16ese119644 0.0 103220
03:00−18ese119958 0.0 103120
06:00−18e119520 0.0 102920
09:00−17e119110 0.0 102920
12:00−8wsw128075 0.0 1026265
15:00−6w357987 0.0 1026515
18:00−8w2391100 0.0 1026344
21:00−15wnw119872 0.0 103020